Location: Caltech
(34.1382°N, 118.1253°W)
Time: 11:15:40
(UTC-07:00)

SL-16 R/B - Visible Passes

Search period start: 23 July 2014 00:00
Search period end: 02 August 2014 00:00
Orbit: 843 x 846 km, 71.0° (Epoch: 23 July)

Date Brightness Start Highest point End Pass type
(mag) Time Alt. Az. Time Alt. Az. Time Alt. Az.
23 Jul 2.2 21:45:04 10° NNW 21:50:43 68° ENE 21:52:50 39° SE visible
23 Jul 4.5 23:31:45 10° WNW 23:34:08 13° W 23:34:43 13° WSW visible
24 Jul 2.2 21:30:56 10° NNW 21:36:34 65° ENE 21:39:16 31° SE visible
24 Jul 4.5 23:17:24 10° WNW 23:20:00 13° W 23:21:10 13° WSW visible
25 Jul 2.3 21:16:48 10° NNW 21:22:25 63° ENE 21:25:46 25° SE visible
25 Jul 4.5 23:03:04 10° WNW 23:05:53 14° W 23:07:40 12° WSW visible
26 Jul 2.3 21:02:40 10° NNW 21:08:16 60° ENE 21:12:19 19° SE visible
26 Jul 4.5 22:48:45 10° WNW 22:51:45 15° W 22:54:13 11° SW visible
27 Jul 2.4 20:48:32 10° NNW 20:54:07 58° ENE 20:58:56 14° SE visible
27 Jul 4.5 22:34:28 10° WNW 22:37:38 15° W 22:40:48 10° SW visible
28 Jul 2.4 20:34:24 10° NNW 20:39:58 56° ENE 20:45:30 10° SE visible
28 Jul 4.5 22:20:11 10° WNW 22:23:30 16° W 22:26:50 10° SW visible
29 Jul 2.5 20:20:16 10° N 20:25:49 53° ENE 20:31:19 10° SE visible
29 Jul 4.5 22:05:54 10° WNW 22:09:23 17° W 22:12:51 10° SW visible
30 Jul 4.5 21:51:38 10° WNW 21:55:15 18° W 21:58:52 10° SW visible
31 Jul 4.5 21:37:23 10° WNW 21:41:08 18° W 21:44:52 10° SW visible
01 Aug 4.5 21:23:08 10° WNW 21:27:00 19° W 21:30:52 10° SW visible
